Total_Precipitation_Accumulation
0.00 0.00 0.01 0.04 0.14 0.06 0.00 0.00 0.00 0.00 0.00 0.00 0.00 0.00 0.00 0.00 0.02 0.15 0.04 0.00 0.00 0.00 0.00 0.01 0.02 0.01 0.02 0.02 0.02 0.02 0.05 0.05 0.03 0.02 0.03 0.02 0.01 0.01 0.01 0.01 0.01 0.01 0.02 0.02 0.04 0.07 0.11 0.16 0.18
0.00 0.00 0.01 0.05 0.10 0.01 0.00 0.00 0.00 0.00 0.00 0.00 0.00 0.00 0.00 0.00 0.00 0.01 0.00 0.00 0.00 0.00 0.00 0.01 0.01 0.02 0.04 0.03 0.03 0.04 0.07 0.08 0.05 0.03 0.04 0.02 0.00 0.00 0.01 0.01 0.02 0.01 0.02 0.02 0.02 0.03 0.09 0.16 0.20
0.00 0.00 0.01 0.05 0.03 0.00 0.00 0.00 0.00 0.00 0.00 0.00 0.00 0.00 0.00 0.00 0.00 0.00 0.00 0.01 0.00 0.00 0.00 0.02 0.03 0.05 0.09 0.08 0.08 0.09 0.10 0.09 0.06 0.04 0.04 0.02 0.02 0.01 0.01 0.02 0.03 0.02 0.02 0.02 0.02 0.03 0.07 0.13 0.15
0.00 0.00 0.02 0.01 0.00 0.00 0.00 0.00 0.00 0.00 0.00 0.00 0.00 0.00 0.00 0.00 0.00 0.00 0.00 0.00 0.00 0.00 0.01 0.05 0.06 0.09 0.14 0.14 0.15 0.19 0.16 0.14 0.09 0.06 0.05 0.05 0.04 0.02 0.01 0.02 0.07 0.04 0.01 0.01 0.03 0.04 0.08 0.13 0.16
0.00 0.01 0.02 0.01 0.00 0.00 0.00 0.00 0.00 0.00 0.00 0.00 0.00 0.00 0.00 0.00 0.00 0.00 0.00 0.01 0.00 0.01 0.03 0.05 0.07 0.10 0.18 0.18 0.16 0.25 0.27 0.26 0.15 0.08 0.06 0.05 0.04 0.01 0.01 0.04 0.07 0.07 0.04 0.01 0.01 0.03 0.05 0.08 0.12
0.00 0.02 0.05 0.01 0.00 0.00 0.00 0.00 0.00 0.00 0.00 0.00 0.00 0.00 0.00 0.00 0.00 0.00 0.00 0.01 0.00 0.02 0.02 0.03 0.06 0.11 0.19 0.22 0.25 0.36 0.38 0.32 0.19 0.08 0.09 0.07 0.06 0.02 0.01 0.03 0.04 0.07 0.07 0.03 0.01 0.01 0.01 0.02 0.04
0.00 0.04 0.08 0.02 0.00 0.00 0.00 0.00 0.00 0.00 0.00 0.00 0.00 0.00 0.00 0.00 0.00 0.00 0.00 0.00 0.00 0.01 0.03 0.03 0.04 0.07 0.15 0.24 0.29 0.38 0.43 0.38 0.23 0.09 0.10 0.09 0.06 0.02 0.01 0.02 0.02 0.02 0.02 0.02 0.02 0.01 0.00 0.00 0.01
0.00 0.03 0.05 0.02 0.01 0.00 0.00 0.00 0.00 0.00 0.00 0.00 0.00 0.00 0.00 0.00 0.00 0.00 0.00 0.00 0.00 0.00 0.01 0.02 0.03 0.05 0.12 0.19 0.29 0.35 0.44 0.56 0.35 0.12 0.08 0.06 0.06 0.03 0.01 0.01 0.00 0.01 0.01 0.01 0.01 0.01 0.00 0.00 0.00
0.00 0.03 0.05 0.05 0.01 0.01 0.00 0.00 0.01 0.00 0.00 0.00 0.00 0.00 0.00 0.00 0.00 0.00 0.00 0.00 0.01 0.00 0.00 0.01 0.01 0.03 0.09 0.14 0.18 0.29 0.36 0.50 0.37 0.13 0.05 0.05 0.06 0.06 0.01 0.01 0.00 0.02 0.02 0.00 0.00 0.00 0.00 0.00 0.00
0.00 0.02 0.04 0.04 0.03 0.02 0.01 0.01 0.02 0.02 0.01 0.01 0.01 0.01 0.00 0.00 0.00 0.00 0.00 0.00 0.00 0.00 0.00 0.00 0.00 0.01 0.04 0.08 0.14 0.22 0.24 0.30 0.26 0.14 0.04 0.08 0.20 0.14 0.02 0.01 0.01 0.01 0.01 0.00 0.00 0.00 0.00 0.00 0.00
0.01 0.02 0.04 0.04 0.03 0.02 0.01 0.01 0.01 0.02 0.03 0.03 0.02 0.02 0.01 0.00 0.00 0.00 0.00 0.00 0.00 0.00 0.00 0.00 0.00 0.00 0.03 0.11 0.18 0.23 0.27 0.33 0.40 0.39 0.12 0.08 0.15 0.09 0.01 0.00 0.00 0.01 0.00 0.00 0.00 0.00 0.00 0.00 0.00
0.02 0.02 0.02 0.02 0.02 0.01 0.01 0.01 0.02 0.02 0.03 0.03 0.02 0.02 0.03 0.03 0.02 0.01 0.00 0.00 0.00 0.00 0.00 0.00 0.00 0.00 0.00 0.05 0.16 0.27 0.31 0.39 0.46 0.41 0.14 0.05 0.07 0.04 0.01 0.00 0.00 0.00 0.00 0.00 0.00 0.00 0.00 0.00 0.00
0.03 0.04 0.03 0.01 0.01 0.02 0.03 0.03 0.03 0.05 0.06 0.04 0.03 0.03 0.04 0.07 0.07 0.05 0.03 0.03 0.01 0.00 0.00 0.00 0.00 0.00 0.00 0.02 0.07 0.11 0.11 0.22 0.43 0.43 0.17 0.08 0.05 0.04 0.03 0.00 0.00 0.00 0.00 0.00 0.00 0.00 0.00 0.00 0.00
0.04 0.06 0.05 0.02 0.02 0.03 0.04 0.05 0.04 0.07 0.08 0.05 0.03 0.04 0.07 0.12 0.15 0.13 0.09 0.06 0.04 0.02 0.02 0.01 0.01 0.00 0.00 0.00 0.01 0.03 0.03 0.11 0.15 0.11 0.05 0.05 0.06 0.06 0.05 0.01 0.00 0.00 0.00 0.00 0.00 0.00 0.00 0.00 0.00
0.01 0.01 0.02 0.01 0.02 0.04 0.05 0.05 0.03 0.05 0.07 0.05 0.03 0.03 0.05 0.09 0.13 0.16 0.14 0.09 0.07 0.06 0.06 0.05 0.05 0.03 0.01 0.01 0.00 0.00 0.01 0.04 0.04 0.03 0.01 0.02 0.05 0.08 0.07 0.02 0.00 0.00 0.00 0.00 0.00 0.00 0.00 0.00 0.00
0.00 0.00 0.00 0.01 0.03 0.07 0.06 0.05 0.05 0.06 0.05 0.04 0.03 0.04 0.05 0.05 0.07 0.12 0.17 0.16 0.13 0.11 0.08 0.08 0.07 0.06 0.04 0.04 0.02 0.01 0.00 0.01 0.02 0.04 0.03 0.01 0.04 0.07 0.09 0.04 0.01 0.00 0.00 0.00 0.00 0.00 0.00 0.00 0.00
0.00 0.00 0.01 0.02 0.05 0.07 0.06 0.06 0.06 0.05 0.04 0.02 0.01 0.01 0.03 0.05 0.06 0.08 0.12 0.15 0.17 0.17 0.13 0.12 0.12 0.09 0.08 0.08 0.07 0.04 0.02 0.01 0.01 0.02 0.01 0.01 0.04 0.07 0.11 0.13 0.04 0.01 0.00 0.00 0.00 0.00 0.00 0.00 0.01
0.01 0.01 0.01 0.03 0.04 0.04 0.05 0.06 0.05 0.03 0.02 0.01 0.00 0.00 0.00 0.00 0.02 0.05 0.08 0.14 0.20 0.20 0.18 0.17 0.17 0.15 0.13 0.11 0.12 0.10 0.07 0.05 0.03 0.02 0.03 0.08 0.16 0.20 0.24 0.30 0.21 0.10 0.07 0.06 0.04 0.03 0.02 0.01 0.01
0.02 0.00 0.00 0.01 0.01 0.01 0.01 0.01 0.02 0.01 0.01 0.00 0.00 0.00 0.00 0.00 0.00 0.00 0.01 0.05 0.12 0.17 0.16 0.15 0.18 0.18 0.15 0.12 0.13 0.12 0.10 0.10 0.10 0.09 0.08 0.12 0.19 0.26 0.35 0.45 0.42 0.34 0.26 0.20 0.16 0.16 0.19 0.11 0.02
0.01 0.01 0.00 0.01 0.01 0.01 0.01 0.01 0.01 0.01 0.01 0.00 0.00 0.00 0.01 0.00 0.00 0.00 0.00 0.00 0.01 0.04 0.09 0.12 0.13 0.14 0.11 0.12 0.16 0.20 0.24 0.24 0.28 0.27 0.24 0.21 0.19 0.23 0.29 0.39 0.38 0.30 0.28 0.22 0.17 0.23 0.33 0.25 0.09
0.00 0.00 0.00 0.00 0.00 0.01 0.01 0.01 0.01 0.02 0.01 0.01 0.01 0.01 0.01 0.01 0.00 0.00 0.00 0.00 0.00 0.01 0.02 0.05 0.10 0.12 0.11 0.18 0.36 0.60 0.80 0.84 0.78 0.70 0.68 0.61 0.50 0.36 0.33 0.34 0.35 0.29 0.32 0.30 0.22 0.20 0.26 0.26 0.17
0.00 0.00 0.00 0.00 0.00 0.00 0.00 0.01 0.02 0.04 0.04 0.04 0.04 0.04 0.04 0.04 0.03 0.02 0.01 0.01 0.01 0.01 0.01 0.02 0.05 0.09 0.13 0.29 0.60 0.97 1.26 1.33 1.28 1.30 1.20 1.07 0.89 0.70 0.60 0.50 0.48 0.35 0.28 0.25 0.20 0.17 0.19 0.24 0.22
0.00 0.00 0.00 0.00 0.01 0.00 0.00 0.01 0.03 0.07 0.11 0.14 0.14 0.14 0.15 0.12 0.09 0.05 0.04 0.03 0.05 0.06 0.06 0.06 0.11 0.23 0.39 0.52 0.68 0.95 1.14 1.23 1.33 1.44 1.53 1.55 1.55 1.37 1.13 0.88 0.62 0.43 0.36 0.33 0.31 0.28 0.24 0.23 0.21
0.00 0.00 0.00 0.00 0.00 0.00 0.00 0.02 0.08 0.16 0.20 0.23 0.23 0.23 0.22 0.16 0.10 0.07 0.06 0.07 0.10 0.16 0.18 0.18 0.25 0.34 0.41 0.50 0.63 0.75 0.84 1.00 1.17 1.31 1.44 1.49 1.51 1.41 1.23 1.00 0.69 0.44 0.35 0.36 0.41 0.39 0.34 0.29 0.23
0.00 0.00 0.00 0.01 0.01 0.02 0.02 0.06 0.15 0.17 0.17 0.19 0.20 0.16 0.12 0.12 0.10 0.08 0.06 0.08 0.11 0.17 0.20 0.24 0.31 0.40 0.41 0.47 0.56 0.66 0.72 0.85 0.99 1.05 1.04 1.01 0.96 0.93 0.89 0.81 0.66 0.48 0.38 0.36 0.41 0.42 0.39 0.31 0.22
0.00 0.00 0.01 0.02 0.02 0.03 0.04 0.13 0.23 0.16 0.10 0.07 0.08 0.08 0.08 0.10 0.10 0.07 0.05 0.07 0.13 0.14 0.19 0.26 0.33 0.36 0.39 0.48 0.58 0.61 0.70 0.81 0.85 0.78 0.69 0.67 0.68 0.71 0.69 0.73 0.66 0.52 0.40 0.35 0.34 0.35 0.32 0.26 0.20
0.00 0.00 0.01 0.03 0.02 0.02 0.05 0.15 0.15 0.07 0.04 0.04 0.06 0.09 0.11 0.13 0.14 0.13 0.11 0.13 0.14 0.16 0.18 0.23 0.28 0.33 0.39 0.49 0.59 0.73 0.79 0.76 0.71 0.56 0.49 0.49 0.46 0.44 0.51 0.63 0.66 0.58 0.45 0.35 0.32 0.34 0.30 0.24 0.20
0.00 0.01 0.02 0.03 0.04 0.06 0.10 0.15 0.13 0.08 0.09 0.10 0.13 0.16 0.23 0.30 0.29 0.28 0.30 0.31 0.27 0.22 0.24 0.25 0.27 0.33 0.39 0.45 0.61 0.84 0.84 0.65 0.51 0.43 0.44 0.43 0.42 0.43 0.47 0.47 0.46 0.42 0.38 0.34 0.32 0.32 0.30 0.24 0.20
0.05 0.03 0.02 0.02 0.03 0.13 0.29 0.42 0.45 0.43 0.36 0.39 0.39 0.43 0.56 0.59 0.58 0.54 0.55 0.54 0.44 0.34 0.31 0.29 0.32 0.42 0.47 0.51 0.66 0.78 0.64 0.47 0.39 0.37 0.34 0.29 0.27 0.27 0.31 0.29 0.26 0.31 0.35 0.28 0.26 0.24 0.24 0.21 0.16
0.07 0.06 0.03 0.05 0.07 0.16 0.33 0.53 0.64 0.69 0.67 0.77 0.82 0.94 0.85 0.79 0.79 0.72 0.65 0.60 0.46 0.40 0.41 0.42 0.48 0.55 0.50 0.45 0.46 0.41 0.30 0.24 0.24 0.21 0.18 0.13 0.12 0.14 0.20 0.20 0.18 0.25 0.34 0.33 0.33 0.31 0.25 0.20 0.15